Regional Weather Roundup
Issued by NWS Boston, MA

Current Version | Previous Version | Graphics & Text | Print | Product List | Glossary Off
Versions: 1 2 3 4 5 6 7 8 9 10 11 12 13 14 15 16 17 18 19 20 21 22 23 24 25 26 27 28 29 30 31 32 33 34 35 36 37 38 39 40 41 42 43 44 45 46 47 48 49
000 ASUS41 KBOX 290204 RWRBOX REGIONAL WEATHER ROUNDUP NATIONAL WEATHER SERVICE BOSTON/NORTON MA 1000 PM EDT THU MAY 28 2020 NOTE: "FAIR" INDICATES FEW OR NO CLOUDS BELOW 12,000 FEET WITH NO SIGNIFICANT WEATHER AND/OR OBSTRUCTIONS TO VISIBILITY. MAZALL-290300- EASTERN MASSACHUSETTS CITY SKY/WX TMP DP RH WIND PRES REMARKS BOSTON MOCLDY 70 64 81 SW15G24 30.12F BEVERLY CLOUDY 72 66 81 S8 30.11S LAWRENCE CLOUDY 73 66 78 S13 30.12S BEDFORD CLOUDY 72 66 81 S13 30.10S BLUE HILL N/A 68 64 87 S22G30 30.12F NORWOOD CLOUDY 71 64 78 S13G18 30.12F MARSHFIELD PTCLDY 72 68 88 SW8G16 30.13S PLYMOUTH CLOUDY 68 64 87 SW10 30.14F TAUNTON LGT RAIN 71 64 78 S9G16 30.14S NEW BEDFORD CLOUDY 68 65 90 S10 30.14F $$ MAZALL-290300- CAPE COD AND THE ISLANDS CITY SKY/WX TMP DP RH WIND PRES REMARKS FALMOUTH CLOUDY 68 64 88 SW14 30.16F HYANNIS CLOUDY 63 61 93 SW9 30.16F CHATHAM CLOUDY 63 60 90 SW6 30.18F PROVINCETOWN CLEAR 64 63 96 S13 30.16S NANTUCKET CLOUDY 60 58 92 S7 30.19F MARTHAS VNYRD CLOUDY 64 61 90 SW10 30.17S $$ MAZALL-290300- CENTRAL AND WESTERN MASSACHUSETTS CITY SKY/WX TMP DP RH WIND PRES REMARKS WORCESTER LGT RAIN 67 66 97 S10 30.13S FITCHBURG CLOUDY 70 66 87 S8 30.11S ORANGE CLOUDY 69 68 96 S10 30.10S SPRINGFIELD CLOUDY 71 68 90 S13 30.08S WESTFIELD CLOUDY 71 67 87 S10 30.08S NORTH ADAMS CLOUDY 73 66 78 VRB3 30.05S PITTSFIELD LGT RAIN 70 67 90 S13G21 30.07R $$ RIZALL-290300- RHODE ISLAND CITY SKY/WX TMP DP RH WIND PRES REMARKS PROVIDENCE DRIZZLE 66 64 93 S8 30.15S FOG NEWPORT CLOUDY 65 62 90 S9 30.15F BLOCK ISLAND CLOUDY 62 60 93 S15 30.16S SMITHFIELD LGT RAIN 67 66 97 VRB6 30.15S WESTERLY CLOUDY 65 59 81 S8 30.15F $$ CTZALL-290300- CONNECTICUT CITY SKY/WX TMP DP RH WIND PRES REMARKS BRADLEY INTL DRIZZLE 70 67 90 S16 30.08F HARTFORD CLOUDY 70 67 90 S10 30.09S BRIDGEPORT FOG 66 65 96 SW6 30.10S VSB 1 DANBURY CLOUDY 68 67 96 S9 30.10F FOG GROTON LGT RAIN 60 59 96 S3 30.13F FOG NEW HAVEN CLOUDY 67 67 100 S8 30.11S FOG CHESTER CLOUDY 66 66 100 S6G13 30.13F FOG MERIDEN LGT RAIN 68 66 93 S8 30.11S WILLIMANTIC CLOUDY 68 67 96 S9 30.12S OXFORD LGT RAIN 66 66 100 S10 30.12S VSB 1 $$ MEZ002-015-021-024-NHZ003-005-008-011-012-014-VTZ005-008-290300- NORTHERN NEW ENGLAND CITY SKY/WX TMP DP RH WIND PRES REMARKS PORTLAND ME CLEAR 70 61 73 S9 30.08R BANGOR ME PTCLDY 69 62 78 S9 30.01S CONCORD NH MOCLDY 72 65 78 S10 30.08S MANCHESTER NH CLOUDY 74 66 76 S15G23 30.07F NASHUA NH CLOUDY 72 70 93 VRB5 30.10F PORTSMOUTH NH CLOUDY 74 64 70 S8 30.08S JAFFREY NH CLOUDY 69 65 86 S12 30.11S KEENE NH CLOUDY 71 67 87 S9 30.08S BURLINGTON VT CLOUDY 78 64 61 S16G29 29.94S MT. WASHINGTON FOG 54 54 100 SW22G38 N/A VSB 1/16 $$ NYZ052-076-290300- EASTERN NEW YORK CITY SKY/WX TMP DP RH WIND PRES REMARKS ALBANY MOCLDY 75 66 73 S18G26 30.01S NEW YORK CITY DRZL/FOG 66 64 93 S10G16 30.08S VSB 1/2 $$ ANZALL-290300- MARINE OBSERVATIONS STATION/POSITION TIME TEMP WIND PRES VSBY WAVE AIR SEA DIR/SP/G HT/PER (UTC) (F) (DEG/KT/KT) (MB) (MI) (FT/S) BOSTON BUOY 0150 64 57 180/ 12/ 14 1019.3F 2/ 3 BUZZARDS BAY 0100 180/ 19/ 20 1021.8F NANTUCKET SOUND 0150 60 57 180/ 12/ 16 1021.1F 1/ 3 MASS BAY-STELLWA 0104 60 45 220/ 14/ 16 1018.2R 1 7/8 2/ 4 ISLE OF SHOALS 0100 67 190/ 27/ 28 1018.5R S OF BLOCK IS NOT AVBL $$ ......................KEY......................... SKY/WX - SKY CONDITION/PRESENT WEATHER TMP - TEMPERATURE IN FAHRENHEIT DWPT - DEWPOINT IN FAHRENHEIT RH - RELATIVE HUMIDITY IN PERCENT WIND - DIRECTION AND SPEED IN MPH PRES - MEAN SEA LEVEL PRESSURE IN INCHES OF HG WCI - WIND CHILL INDEX VSB - VISIBILITY IN MILES HX - HEAT INDEX TC - TEMPERATURE IN CELSIUS VRB - VARIABLE WIND DIRECTION N/A - NOT AVAILABLE

USA.gov is the U.S. government's official web portal to all federal, state and local government web resources and services.